Time,TemperatureF,DewpointF,PressureIn,WindDirection,WindDirectionDegrees,WindSpeedMPH,WindSpeedGustMPH,Humidity,HourlyPrecipIn,Conditions,Clouds,dailyrainin,SoftwareType,DateUTC
2013-03-01 00:00:00,57.5,50.2,29.96,SW,235,0.0,0.0,77,0.00,,,0.00,VWS V14.01,2013-03-01 05:00:00,
2013-03-01 00:05:00,57.4,50.3,29.96,SW,235,0.0,0.0,77,0.00,,,0.00,VWS V14.01,2013-03-01 05:05:00,
2013-03-01 00:06:00,57.4,50.4,29.96,SW,235,0.0,0.0,78,0.00,,,0.00,VWS V14.01,2013-03-01 05:06:00,
2013-03-01 00:10:00,57.4,50.5,29.96,WNW,301,0.0,5.1,78,0.00,,,0.00,VWS V14.01,2013-03-01 05:10:00,
2013-03-01 00:11:00,57.4,50.5,29.96,WNW,295,0.0,5.1,78,0.00,,,0.00,VWS V14.01,2013-03-01 05:11:00,
2013-03-01 00:15:00,57.3,50.8,29.96,WNW,295,0.0,0.0,79,0.00,,,0.00,VWS V14.01,2013-03-01 05:15:00,
2013-03-01 00:16:00,57.3,50.7,29.96,WNW,295,0.0,0.0,78,0.00,,,0.00,VWS V14.01,2013-03-01 05:16:00,
2013-03-01 00:20:00,57.2,50.6,29.96,NW,312,0.0,0.0,78,0.00,,,0.00,VWS V14.01,2013-03-01 05:20:00,
2013-03-01 00:21:00,57.2,50.5,29.96,NW,312,0.0,0.0,78,0.00,,,0.00,VWS V14.01,2013-03-01 05:21:00,
2013-03-01 00:25:00,57.2,50.7,29.96,NW,312,0.0,0.0,79,0.00,,,0.00,VWS V14.01,2013-03-01 05:25:00,
2013-03-01 00:26:00,57.2,50.6,29.96,NW,312,0.0,0.0,78,0.00,,,0.00,VWS V14.01,2013-03-01 05:26:00,
2013-03-01 00:30:00,57.2,50.5,29.97,NW,312,0.0,0.0,78,0.00,,,0.00,VWS V14.01,2013-03-01 05:30:00,
2013-03-01 00:31:00,57.2,50.5,29.96,NW,312,0.0,0.0,78,0.00,,,0.00,VWS V14.01,2013-03-01 05:31:00,
2013-03-01 00:35:00,57.1,50.5,29.96,NW,312,0.0,0.0,78,0.00,,,0.00,VWS V14.01,2013-03-01 05:35:00,
2013-03-01 00:36:00,57.1,50.5,29.97,NW,312,0.0,0.0,78,0.00,,,0.00,VWS V14.01,2013-03-01 05:36:00,
2013-03-01 00:40:00,57.1,50.6,29.97,NW,312,0.0,0.0,79,0.00,,,0.00,VWS V14.01,2013-03-01 05:40:00,
2013-03-01 00:41:00,57.1,50.6,29.97,NW,312,0.0,0.0,79,0.00,,,0.00,VWS V14.01,2013-03-01 05:41:00,
2013-03-01 00:45:00,57.0,50.5,29.97,NW,312,0.0,0.0,79,0.00,,,0.00,VWS V14.01,2013-03-01 05:45:00,
2013-03-01 00:46:00,57.0,50.5,29.97,NW,312,0.0,0.0,79,0.00,,,0.00,VWS V14.01,2013-03-01 05:46:00,
2013-03-01 00:50:00,57.0,50.7,29.96,NW,312,0.0,0.0,79,0.00,,,0.00,VWS V14.01,2013-03-01 05:50:00,
2013-03-01 00:51:00,57.0,50.5,29.96,NW,312,0.0,0.0,79,0.00,,,0.00,VWS V14.01,2013-03-01 05:51:00,
2013-03-01 00:55:00,56.9,50.5,29.96,NW,312,0.0,0.0,79,0.00,,,0.00,VWS V14.01,2013-03-01 05:55:00,
2013-03-01 00:56:00,56.8,50.5,29.97,NW,312,0.0,0.0,79,0.00,,,0.00,VWS V14.01,2013-03-01 05:56:00,
2013-03-01 01:00:00,56.9,50.6,29.97,NW,312,0.0,0.0,80,0.00,,,0.00,VWS V14.01,2013-03-01 06:00:00,
2013-03-01 01:01:00,56.8,50.5,29.97,NW,312,0.0,0.0,79,0.00,,,0.00,VWS V14.01,2013-03-01 06:01:00,
2013-03-01 01:05:00,56.7,50.5,29.97,NW,312,0.0,0.0,80,0.00,,,0.00,VWS V14.01,2013-03-01 06:05:00,
2013-03-01 01:06:00,56.8,50.5,29.97,NW,312,0.0,0.0,80,0.00,,,0.00,VWS V14.01,2013-03-01 06:06:00,
2013-03-01 01:10:00,56.7,50.4,29.97,NW,312,0.0,0.0,80,0.00,,,0.00,VWS V14.01,2013-03-01 06:10:00,
2013-03-01 01:11:00,56.6,50.4,29.97,NW,312,0.0,0.0,80,0.00,,,0.00,VWS V14.01,2013-03-01 06:11:00,
2013-03-01 01:15:00,56.7,50.5,29.97,NW,312,0.0,0.0,80,0.00,,,0.00,VWS V14.01,2013-03-01 06:15:00,
2013-03-01 01:16:00,56.6,50.6,29.97,NW,312,0.0,0.0,80,0.00,,,0.00,VWS V14.01,2013-03-01 06:16:00,
2013-03-01 01:20:00,56.6,50.6,29.97,WNW,301,0.0,0.0,80,0.00,,,0.00,VWS V14.01,2013-03-01 06:20:00,
2013-03-01 01:21:00,56.5,50.5,29.97,WNW,301,0.0,0.0,80,0.00,,,0.00,VWS V14.01,2013-03-01 06:21:00,
2013-03-01 01:25:00,56.5,50.7,29.96,WNW,301,0.0,0.0,81,0.00,,,0.00,VWS V14.01,2013-03-01 06:25:00,
2013-03-01 01:26:00,56.4,50.5,29.96,WNW,301,0.0,0.0,81,0.00,,,0.00,VWS V14.01,2013-03-01 06:26:00,
2013-03-01 01:30:00,56.4,50.6,29.96,WNW,301,0.0,0.0,81,0.00,,,0.00,VWS V14.01,2013-03-01 06:30:00,
2013-03-01 01:31:00,56.4,50.7,29.96,WNW,301,0.0,0.0,81,0.00,,,0.00,VWS V14.01,2013-03-01 06:31:00,
2013-03-01 01:35:00,56.3,50.5,29.96,WNW,301,0.0,0.0,81,0.00,,,0.00,VWS V14.01,2013-03-01 06:35:00,
2013-03-01 01:36:00,56.2,50.5,29.96,WNW,301,0.0,0.0,81,0.00,,,0.00,VWS V14.01,2013-03-01 06:36:00,
2013-03-01 01:40:00,56.2,50.7,29.97,WNW,301,0.0,0.0,82,0.00,,,0.00,VWS V14.01,2013-03-01 06:40:00,
2013-03-01 01:41:00,56.1,50.6,29.97,WNW,301,0.0,0.0,82,0.00,,,0.00,VWS V14.01,2013-03-01 06:41:00,
2013-03-01 01:45:00,56.0,50.5,29.96,WNW,301,0.0,0.0,82,0.00,,,0.00,VWS V14.01,2013-03-01 06:45:00,
2013-03-01 01:46:00,55.9,50.4,29.97,WNW,301,0.0,0.0,82,0.00,,,0.00,VWS V14.01,2013-03-01 06:46:00,
2013-03-01 01:50:00,55.9,50.4,29.96,WNW,301,0.0,0.0,82,0.00,,,0.00,VWS V14.01,2013-03-01 06:50:00,
2013-03-01 01:51:00,55.9,50.5,29.96,WNW,301,0.0,0.0,82,0.00,,,0.00,VWS V14.01,2013-03-01 06:51:00,
2013-03-01 01:55:00,55.8,50.4,29.96,WNW,301,0.0,0.0,82,0.00,,,0.00,VWS V14.01,2013-03-01 06:55:00,
2013-03-01 01:56:00,55.7,50.4,29.96,WNW,301,0.0,0.0,82,0.00,,,0.00,VWS V14.01,2013-03-01 06:56:00,
2013-03-01 02:00:00,55.7,50.4,29.96,WNW,301,0.0,0.0,82,0.00,,,0.00,VWS V14.01,2013-03-01 07:00:00,
2013-03-01 02:01:00,55.6,50.4,29.96,WNW,301,0.0,0.0,82,0.00,,,0.00,VWS V14.01,2013-03-01 07:01:00,
2013-03-01 02:05:00,55.5,50.4,29.95,WNW,301,0.0,0.0,83,0.00,,,0.00,VWS V14.01,2013-03-01 07:05:00,
2013-03-01 02:06:00,55.5,50.4,29.95,WNW,301,0.0,0.0,83,0.00,,,0.00,VWS V14.01,2013-03-01 07:06:00,
2013-03-01 02:10:00,55.4,50.3,29.95,WNW,301,0.0,0.0,83,0.00,,,0.00,VWS V14.01,2013-03-01 07:10:00,
2013-03-01 02:11:00,55.5,50.4,29.95,WNW,301,0.0,0.0,83,0.00,,,0.00,VWS V14.01,2013-03-01 07:11:00,
2013-03-01 02:15:00,55.4,50.4,29.95,WNW,301,0.0,0.0,83,0.00,,,0.00,VWS V14.01,2013-03-01 07:15:00,
2013-03-01 02:16:00,55.3,50.4,29.95,WNW,301,0.0,0.0,84,0.00,,,0.00,VWS V14.01,2013-03-01 07:16:00,
2013-03-01 02:20:00,55.2,50.4,29.94,WNW,301,0.0,0.0,84,0.00,,,0.00,VWS V14.01,2013-03-01 07:20:00,
2013-03-01 02:21:00,55.2,50.4,29.95,WNW,301,0.0,0.0,84,0.00,,,0.00,VWS V14.01,2013-03-01 07:21:00,
2013-03-01 02:25:00,55.1,50.4,29.94,WNW,301,0.0,0.0,84,0.00,,,0.00,VWS V14.01,2013-03-01 07:25:00,
2013-03-01 02:26:00,55.0,50.3,29.94,WNW,301,0.0,0.0,84,0.00,,,0.00,VWS V14.01,2013-03-01 07:26:00,
2013-03-01 02:30:00,54.9,50.2,29.94,WNW,301,0.0,0.0,84,0.00,,,0.00,VWS V14.01,2013-03-01 07:30:00,
2013-03-01 02:31:00,54.9,50.3,29.94,WNW,301,0.0,0.0,84,0.00,,,0.00,VWS V14.01,2013-03-01 07:31:00,
2013-03-01 02:35:00,54.8,50.2,29.94,WNW,301,0.0,0.0,84,0.00,,,0.00,VWS V14.01,2013-03-01 07:35:00,
2013-03-01 02:36:00,54.7,50.2,29.94,WNW,301,0.0,0.0,85,0.00,,,0.00,VWS V14.01,2013-03-01 07:36:00,
2013-03-01 02:40:00,54.6,50.1,29.94,WNW,301,0.0,0.0,85,0.00,,,0.00,VWS V14.01,2013-03-01 07:40:00,
2013-03-01 02:41:00,54.6,50.1,29.93,WNW,301,0.0,0.0,85,0.00,,,0.00,VWS V14.01,2013-03-01 07:41:00,
2013-03-01 02:45:00,54.5,50.1,29.93,WNW,301,0.0,0.0,85,0.00,,,0.00,VWS V14.01,2013-03-01 07:45:00,
2013-03-01 02:50:00,54.4,50.0,29.93,WNW,301,0.0,0.0,85,0.00,,,0.00,VWS V14.01,2013-03-01 07:50:00,
2013-03-01 02:55:00,54.1,49.8,29.93,WNW,301,0.0,0.0,85,0.00,,,0.00,VWS V14.01,2013-03-01 07:55:00,
2013-03-01 03:00:00,54.2,50.0,29.93,WNW,301,0.0,0.0,86,0.00,,,0.00,VWS V14.01,2013-03-01 08:00:00,
2013-03-01 03:05:00,54.0,49.8,29.93,WNW,301,0.0,0.0,86,0.00,,,0.00,VWS V14.01,2013-03-01 08:05:00,
2013-03-01 03:10:00,53.9,49.8,29.93,WNW,301,0.0,0.0,86,0.00,,,0.00,VWS V14.01,2013-03-01 08:10:00,
2013-03-01 03:15:00,53.6,49.6,29.93,WNW,301,0.0,0.0,86,0.00,,,0.00,VWS V14.01,2013-03-01 08:15:00,
2013-03-01 03:20:00,53.6,49.7,29.93,WNW,301,0.0,0.0,87,0.00,,,0.00,VWS V14.01,2013-03-01 08:20:00,
2013-03-01 03:25:00,53.5,49.7,29.93,WNW,301,0.0,0.0,87,0.00,,,0.00,VWS V14.01,2013-03-01 08:25:00,
2013-03-01 03:30:00,53.5,49.7,29.94,WNW,301,0.0,0.0,87,0.00,,,0.00,VWS V14.01,2013-03-01 08:30:00,
2013-03-01 03:35:00,53.4,49.7,29.94,WNW,301,0.0,0.0,87,0.00,,,0.00,VWS V14.01,2013-03-01 08:35:00,
2013-03-01 03:40:00,53.3,49.7,29.94,WNW,301,0.0,0.0,87,0.00,,,0.00,VWS V14.01,2013-03-01 08:40:00,
2013-03-01 03:45:00,53.2,49.6,29.94,WNW,301,0.0,0.0,88,0.00,,,0.00,VWS V14.01,2013-03-01 08:45:00,
2013-03-01 03:50:00,53.1,49.5,29.94,WNW,301,0.0,0.0,88,0.00,,,0.00,VWS V14.01,2013-03-01 08:50:00,
2013-03-01 03:55:00,53.1,49.7,29.94,WNW,301,0.0,0.0,88,0.00,,,0.00,VWS V14.01,2013-03-01 08:55:00,
2013-03-01 04:00:00,53.0,49.5,29.94,WNW,301,0.0,0.0,88,0.00,,,0.00,VWS V14.01,2013-03-01 09:00:00,
2013-03-01 04:05:00,52.9,49.5,29.94,WNW,301,0.0,0.0,88,0.00,,,0.00,VWS V14.01,2013-03-01 09:05:00,
2013-03-01 04:10:00,52.8,49.5,29.94,WNW,301,0.0,0.0,88,0.00,,,0.00,VWS V14.01,2013-03-01 09:10:00,
2013-03-01 04:15:00,52.6,49.2,29.93,WNW,301,0.0,0.0,88,0.00,,,0.00,VWS V14.01,2013-03-01 09:15:00,
2013-03-01 04:20:00,52.5,49.0,29.93,WNW,301,0.0,0.0,88,0.00,,,0.00,VWS V14.01,2013-03-01 09:20:00,
2013-03-01 04:25:00,52.4,48.9,29.93,WNW,301,0.0,0.0,88,0.00,,,0.00,VWS V14.01,2013-03-01 09:25:00,
2013-03-01 04:30:00,52.4,48.9,29.93,WNW,301,0.0,0.0,88,0.00,,,0.00,VWS V14.01,2013-03-01 09:30:00,
2013-03-01 04:35:00,52.3,48.7,29.93,WNW,301,0.0,0.0,88,0.00,,,0.00,VWS V14.01,2013-03-01 09:35:00,
2013-03-01 04:40:00,52.3,48.6,29.93,WNW,301,0.0,0.0,87,0.00,,,0.00,VWS V14.01,2013-03-01 09:40:00,
2013-03-01 04:45:00,52.1,48.4,29.94,WNW,301,0.0,0.0,87,0.00,,,0.00,VWS V14.01,2013-03-01 09:45:00,
2013-03-01 04:50:00,52.1,48.4,29.93,WNW,301,0.0,0.0,87,0.00,,,0.00,VWS V14.01,2013-03-01 09:50:00,
2013-03-01 04:55:00,52.0,48.3,29.94,WNW,301,0.0,0.0,87,0.00,,,0.00,VWS V14.01,2013-03-01 09:55:00,
2013-03-01 05:00:00,51.8,48.1,29.94,WNW,301,0.0,0.0,87,0.00,,,0.00,VWS V14.01,2013-03-01 10:00:00,
2013-03-01 05:05:00,51.8,48.0,29.94,WNW,301,0.0,0.0,87,0.00,,,0.00,VWS V14.01,2013-03-01 10:05:00,
2013-03-01 05:10:00,51.6,47.8,29.94,WNW,301,0.0,0.0,87,0.00,,,0.00,VWS V14.01,2013-03-01 10:10:00,
2013-03-01 05:15:00,51.4,47.6,29.94,WNW,301,0.0,0.0,87,0.00,,,0.00,VWS V14.01,2013-03-01 10:15:00,
2013-03-01 05:20:00,51.3,47.4,29.95,WNW,301,0.0,0.0,86,0.00,,,0.00,VWS V14.01,2013-03-01 10:20:00,
2013-03-01 05:25:00,51.3,47.3,29.95,WNW,301,0.0,0.0,86,0.00,,,0.00,VWS V14.01,2013-03-01 10:25:00,
2013-03-01 05:30:00,51.4,47.4,29.96,WNW,301,0.0,0.0,86,0.00,,,0.00,VWS V14.01,2013-03-01 10:30:00,
2013-03-01 05:35:00,51.3,47.2,29.96,WNW,301,0.0,0.0,86,0.00,,,0.00,VWS V14.01,2013-03-01 10:35:00,
2013-03-01 05:40:00,51.2,47.2,29.97,WNW,301,0.0,0.0,86,0.00,,,0.00,VWS V14.01,2013-03-01 10:40:00,
2013-03-01 05:45:00,51.2,47.3,29.97,WNW,301,0.0,0.0,86,0.00,,,0.00,VWS V14.01,2013-03-01 10:45:00,
2013-03-01 05:50:00,51.1,47.2,29.97,WNW,301,0.0,0.0,87,0.00,,,0.00,VWS V14.01,2013-03-01 10:50:00,
2013-03-01 05:55:00,51.1,47.2,29.97,WNW,301,0.0,0.0,87,0.00,,,0.00,VWS V14.01,2013-03-01 10:55:00,
2013-03-01 06:00:00,50.9,47.1,29.97,WNW,301,0.0,0.0,87,0.00,,,0.00,VWS V14.01,2013-03-01 11:00:00,
2013-03-01 06:05:00,51.1,47.2,29.98,WNW,301,0.0,0.0,86,0.00,,,0.00,VWS V14.01,2013-03-01 11:05:00,
2013-03-01 06:10:00,51.0,47.2,29.98,WNW,301,0.0,0.0,87,0.00,,,0.00,VWS V14.01,2013-03-01 11:10:00,
2013-03-01 06:15:00,51.0,47.1,29.98,WNW,301,0.0,0.0,86,0.00,,,0.00,VWS V14.01,2013-03-01 11:15:00,
2013-03-01 06:20:00,50.9,47.0,29.98,WNW,301,0.0,0.0,86,0.00,,,0.00,VWS V14.01,2013-03-01 11:20:00,
2013-03-01 06:25:00,50.8,46.9,29.98,WNW,301,0.0,0.0,86,0.00,,,0.00,VWS V14.01,2013-03-01 11:25:00,
2013-03-01 06:30:00,50.7,46.7,29.98,WNW,301,0.0,0.0,86,0.00,,,0.00,VWS V14.01,2013-03-01 11:30:00,
2013-03-01 06:35:00,50.8,46.8,29.98,WNW,301,0.0,0.0,86,0.00,,,0.00,VWS V14.01,2013-03-01 11:35:00,
2013-03-01 06:40:00,50.7,46.7,29.98,WNW,301,0.0,0.0,86,0.00,,,0.00,VWS V14.01,2013-03-01 11:40:00,
2013-03-01 06:45:00,50.7,46.7,29.98,WNW,301,0.0,0.0,86,0.00,,,0.00,VWS V14.01,2013-03-01 11:45:00,
2013-03-01 06:50:00,50.7,46.7,29.98,WNW,301,0.0,0.0,86,0.00,,,0.00,VWS V14.01,2013-03-01 11:50:00,
2013-03-01 06:55:00,50.7,46.7,29.98,WNW,301,0.0,0.0,86,0.00,,,0.00,VWS V14.01,2013-03-01 11:55:00,
2013-03-01 07:00:00,50.7,46.7,29.98,WNW,301,0.0,0.0,86,0.00,,,0.00,VWS V14.01,2013-03-01 12:00:00,
2013-03-01 07:05:00,50.7,46.7,29.98,WNW,301,0.0,0.0,86,0.00,,,0.00,VWS V14.01,2013-03-01 12:05:00,
2013-03-01 07:10:00,50.6,46.6,29.98,WNW,301,0.0,0.0,86,0.00,,,0.00,VWS V14.01,2013-03-01 12:10:00,
2013-03-01 07:15:00,50.6,46.5,29.98,WNW,301,0.0,0.0,86,0.00,,,0.00,VWS V14.01,2013-03-01 12:15:00,
2013-03-01 07:20:00,50.6,46.5,29.98,WNW,301,0.0,0.0,86,0.00,,,0.00,VWS V14.01,2013-03-01 12:20:00,
2013-03-01 07:25:00,50.7,46.5,29.98,WNW,301,0.0,0.0,86,0.00,,,0.00,VWS V14.01,2013-03-01 12:25:00,
2013-03-01 07:30:00,50.6,46.4,29.98,WNW,301,0.0,0.0,86,0.00,,,0.00,VWS V14.01,2013-03-01 12:30:00,
2013-03-01 07:35:00,50.7,46.4,29.99,WNW,301,0.0,0.0,85,0.00,,,0.00,VWS V14.01,2013-03-01 12:35:00,
2013-03-01 07:40:00,50.7,46.4,29.99,WNW,301,0.0,0.0,85,0.00,,,0.00,VWS V14.01,2013-03-01 12:40:00,
2013-03-01 07:45:00,50.8,46.5,29.99,WNW,301,0.0,0.0,85,0.00,,,0.00,VWS V14.01,2013-03-01 12:45:00,
2013-03-01 07:50:00,50.7,46.3,29.99,WNW,301,0.0,0.0,85,0.00,,,0.00,VWS V14.01,2013-03-01 12:50:00,
2013-03-01 07:55:00,50.8,46.4,29.99,WNW,301,0.0,0.0,85,0.00,,,0.00,VWS V14.01,2013-03-01 12:55:00,
2013-03-01 08:00:00,50.9,46.2,30.00,West,266,0.0,0.0,84,0.00,,,0.00,VWS V14.01,2013-03-01 13:00:00,
2013-03-01 08:05:00,51.1,46.0,30.00,West,266,0.0,0.0,83,0.00,,,0.00,VWS V14.01,2013-03-01 13:05:00,
2013-03-01 08:10:00,51.2,46.1,30.00,West,266,0.0,0.0,83,0.00,,,0.00,VWS V14.01,2013-03-01 13:10:00,
2013-03-01 08:15:00,51.6,46.1,30.01,WSW,238,0.0,4.7,81,0.00,,,0.00,VWS V14.01,2013-03-01 13:15:00,
2013-03-01 08:20:00,51.8,45.4,30.01,NNE,14,0.0,4.4,79,0.00,,,0.00,VWS V14.01,2013-03-01 13:20:00,
2013-03-01 08:25:00,52.1,45.9,30.01,NW,322,0.0,4.6,79,0.00,,,0.00,VWS V14.01,2013-03-01 13:25:00,
2013-03-01 08:30:00,52.7,46.3,30.01,WNW,294,5.1,5.1,79,0.00,,,0.00,VWS V14.01,2013-03-01 13:30:00,
2013-03-01 08:35:00,52.7,45.9,30.02,NNE,14,0.0,5.3,78,0.00,,,0.00,VWS V14.01,2013-03-01 13:35:00,
2013-03-01 08:40:00,52.9,45.5,30.02,NW,305,0.0,3.1,76,0.00,,,0.00,VWS V14.01,2013-03-01 13:40:00,
2013-03-01 08:45:00,53.1,45.2,30.02,NW,305,0.0,0.0,74,0.00,,,0.00,VWS V14.01,2013-03-01 13:45:00,
2013-03-01 08:50:00,53.2,44.8,30.02,NNE,22,2.5,6.3,73,0.00,,,0.00,VWS V14.01,2013-03-01 13:50:00,
2013-03-01 08:55:00,53.4,45.3,30.02,WNW,295,0.0,0.0,74,0.00,,,0.00,VWS V14.01,2013-03-01 13:55:00,
2013-03-01 09:00:00,53.5,44.9,30.02,North,4,0.0,6.3,72,0.00,,,0.00,VWS V14.01,2013-03-01 14:00:00,
2013-03-01 09:05:00,53.6,44.8,30.02,North,3,0.0,0.0,72,0.00,,,0.00,VWS V14.01,2013-03-01 14:05:00,
2013-03-01 09:10:00,53.9,45.2,30.02,North,3,0.0,0.0,72,0.00,,,0.00,VWS V14.01,2013-03-01 14:10:00,
2013-03-01 09:15:00,54.2,45.3,30.02,North,0,1.8,4.3,72,0.00,,,0.00,VWS V14.01,2013-03-01 14:15:00,
2013-03-01 09:20:00,54.5,45.2,30.02,North,10,0.0,6.5,71,0.00,,,0.00,VWS V14.01,2013-03-01 14:20:00,
2013-03-01 09:25:00,54.8,45.2,30.02,NNW,346,1.9,1.9,70,0.00,,,0.00,VWS V14.01,2013-03-01 14:25:00,
2013-03-01 09:30:00,55.0,44.8,30.02,WNW,292,0.0,0.0,68,0.00,,,0.00,VWS V14.01,2013-03-01 14:30:00,
2013-03-01 09:35:00,55.0,44.7,30.01,NE,38,0.0,0.0,68,0.00,,,0.00,VWS V14.01,2013-03-01 14:35:00,
2013-03-01 09:40:00,55.2,45.1,30.01,NE,42,0.0,0.0,69,0.00,,,0.00,VWS V14.01,2013-03-01 14:40:00,
2013-03-01 09:45:00,55.5,44.9,30.02,NNW,347,4.7,4.7,67,0.00,,,0.00,VWS V14.01,2013-03-01 14:45:00,
2013-03-01 09:50:00,55.7,44.5,30.01,NE,44,3.2,4.5,66,0.00,,,0.00,VWS V14.01,2013-03-01 14:50:00,
2013-03-01 09:55:00,55.9,44.1,30.01,NE,44,0.0,0.0,64,0.00,,,0.00,VWS V14.01,2013-03-01 14:55:00,
2013-03-01 10:00:00,56.0,44.8,30.01,NE,44,0.0,0.0,66,0.00,,,0.00,VWS V14.01,2013-03-01 15:00:00,
2013-03-01 10:05:00,56.3,44.4,30.01,WNW,295,0.0,0.0,64,0.00,,,0.00,VWS V14.01,2013-03-01 15:05:00,
2013-03-01 10:10:00,56.6,43.9,30.01,NE,35,2.8,6.5,62,0.00,,,0.00,VWS V14.01,2013-03-01 15:10:00,
2013-03-01 10:14:00,56.7,44.2,30.01,NNE,15,0.0,5.2,63,0.00,,,0.00,VWS V14.01,2013-03-01 15:14:00,
2013-03-01 10:15:00,56.8,44.4,30.01,NNE,15,0.0,3.5,63,0.00,,,0.00,VWS V14.01,2013-03-01 15:15:00,
2013-03-01 10:19:00,57.0,44.3,30.02,WNW,295,0.0,6.6,62,0.00,,,0.00,VWS V14.01,2013-03-01 15:19:00,
2013-03-01 10:20:00,57.0,44.4,30.02,WNW,295,0.0,6.6,63,0.00,,,0.00,VWS V14.01,2013-03-01 15:20:00,
2013-03-01 10:24:00,57.0,44.0,30.02,North,8,0.0,0.0,62,0.00,,,0.00,VWS V14.01,2013-03-01 15:24:00,
2013-03-01 10:25:00,57.0,43.9,30.02,North,8,0.0,0.0,62,0.00,,,0.00,VWS V14.01,2013-03-01 15:25:00,
2013-03-01 10:29:00,57.1,43.4,30.01,North,359,0.0,1.9,60,0.00,,,0.00,VWS V14.01,2013-03-01 15:29:00,
2013-03-01 10:30:00,57.2,43.5,30.01,North,359,0.0,0.0,60,0.00,,,0.00,VWS V14.01,2013-03-01 15:30:00,
2013-03-01 10:34:00,57.2,44.0,30.01,North,359,0.0,0.0,61,0.00,,,0.00,VWS V14.01,2013-03-01 15:34:00,
2013-03-01 10:35:00,57.2,44.0,30.01,North,359,0.0,0.0,61,0.00,,,0.00,VWS V14.01,2013-03-01 15:35:00,
2013-03-01 10:39:00,57.3,43.9,30.01,North,359,0.0,0.0,61,0.00,,,0.00,VWS V14.01,2013-03-01 15:39:00,
2013-03-01 10:40:00,57.3,44.1,30.01,North,359,0.0,0.0,61,0.00,,,0.00,VWS V14.01,2013-03-01 15:40:00,
2013-03-01 10:44:00,57.5,43.7,30.01,North,357,0.0,0.0,60,0.00,,,0.00,VWS V14.01,2013-03-01 15:44:00,
2013-03-01 10:45:00,57.5,43.5,30.01,North,357,0.0,0.0,60,0.00,,,0.00,VWS V14.01,2013-03-01 15:45:00,
2013-03-01 10:49:00,57.7,44.4,30.01,NNW,329,7.0,7.0,61,0.00,,,0.00,VWS V14.01,2013-03-01 15:49:00,
2013-03-01 10:50:00,57.7,44.5,30.01,West,280,0.0,7.0,61,0.00,,,0.00,VWS V14.01,2013-03-01 15:50:00,
2013-03-01 10:54:00,57.9,44.4,30.01,WNW,300,0.0,0.0,61,0.00,,,0.00,VWS V14.01,2013-03-01 15:54:00,
2013-03-01 10:55:00,58.0,44.6,30.01,WNW,300,0.0,0.0,61,0.00,,,0.00,VWS V14.01,2013-03-01 15:55:00,
2013-03-01 10:59:00,58.2,44.9,30.02,WSW,245,0.0,0.0,61,0.00,,,0.00,VWS V14.01,2013-03-01 15:59:00,
2013-03-01 11:00:00,58.3,45.0,30.02,WSW,245,0.0,0.0,61,0.00,,,0.00,VWS V14.01,2013-03-01 16:00:00,
2013-03-01 11:04:00,58.5,44.4,30.02,WSW,245,0.0,0.0,59,0.00,,,0.00,VWS V14.01,2013-03-01 16:04:00,
2013-03-01 11:05:00,58.5,44.5,30.02,WSW,245,0.0,0.0,60,0.00,,,0.00,VWS V14.01,2013-03-01 16:05:00,
2013-03-01 11:09:00,58.8,44.6,30.02,WSW,245,0.0,0.0,59,0.00,,,0.00,VWS V14.01,2013-03-01 16:09:00,
2013-03-01 11:10:00,59.0,45.1,30.02,WSW,245,0.0,0.0,60,0.00,,,0.00,VWS V14.01,2013-03-01 16:10:00,
2013-03-01 11:14:00,58.9,44.6,30.02,SW,221,4.1,5.2,59,0.00,,,0.00,VWS V14.01,2013-03-01 16:14:00,
2013-03-01 11:15:00,58.9,44.5,30.02,SW,221,0.0,5.2,59,0.00,,,0.00,VWS V14.01,2013-03-01 16:15:00,
2013-03-01 11:19:00,59.1,45.2,30.02,SW,221,0.0,0.0,60,0.00,,,0.00,VWS V14.01,2013-03-01 16:19:00,
2013-03-01 11:20:00,59.2,45.2,30.02,SW,221,0.0,0.0,60,0.00,,,0.00,VWS V14.01,2013-03-01 16:20:00,
2013-03-01 11:24:00,59.3,44.8,30.01,SW,221,0.0,0.0,58,0.00,,,0.00,VWS V14.01,2013-03-01 16:24:00,
2013-03-01 11:25:00,59.3,44.9,30.01,SW,221,0.0,0.0,59,0.00,,,0.00,VWS V14.01,2013-03-01 16:25:00,
2013-03-01 11:29:00,59.4,44.5,30.01,SW,221,0.0,0.0,58,0.00,,,0.00,VWS V14.01,2013-03-01 16:29:00,
2013-03-01 11:30:00,59.4,44.5,30.01,SW,221,0.0,0.0,58,0.00,,,0.00,VWS V14.01,2013-03-01 16:30:00,
2013-03-01 11:34:00,59.4,44.2,30.02,SW,221,0.0,0.0,57,0.00,,,0.00,VWS V14.01,2013-03-01 16:34:00,
2013-03-01 11:35:00,59.3,44.3,30.02,SW,221,0.0,0.0,58,0.00,,,0.00,VWS V14.01,2013-03-01 16:35:00,
2013-03-01 11:39:00,59.4,44.2,30.02,NNW,340,0.0,6.4,57,0.00,,,0.00,VWS V14.01,2013-03-01 16:39:00,
2013-03-01 11:40:00,59.5,44.1,30.02,WNW,298,2.6,6.3,57,0.00,,,0.00,VWS V14.01,2013-03-01 16:40:00,
2013-03-01 11:44:00,59.4,43.7,30.01,NW,318,6.3,6.9,56,0.00,,,0.00,VWS V14.01,2013-03-01 16:44:00,
2013-03-01 11:45:00,59.6,43.3,30.01,NW,323,0.0,6.9,55,0.00,,,0.00,VWS V14.01,2013-03-01 16:45:00,
2013-03-01 11:49:00,59.8,44.3,30.01,SW,221,0.0,0.0,56,0.00,,,0.00,VWS V14.01,2013-03-01 16:49:00,
2013-03-01 11:50:00,59.7,44.2,30.01,SW,221,0.0,0.0,56,0.00,,,0.00,VWS V14.01,2013-03-01 16:50:00,
2013-03-01 11:54:00,60.1,44.1,30.01,SW,221,0.0,0.0,56,0.00,,,0.00,VWS V14.01,2013-03-01 16:54:00,
2013-03-01 11:55:00,60.0,44.4,30.01,SW,221,0.0,0.0,56,0.00,,,0.00,VWS V14.01,2013-03-01 16:55:00,
2013-03-01 11:59:00,60.2,43.7,30.01,NE,52,2.4,8.6,54,0.00,,,0.00,VWS V14.01,2013-03-01 16:59:00,
2013-03-01 12:00:00,60.2,42.6,30.01,NE,35,2.9,8.6,52,0.00,,,0.00,VWS V14.01,2013-03-01 17:00:00,
2013-03-01 12:04:00,60.4,43.3,30.01,NNW,336,0.0,0.0,53,0.00,,,0.00,VWS V14.01,2013-03-01 17:04:00,
2013-03-01 12:05:00,60.5,43.5,30.01,NNW,336,0.0,0.0,53,0.00,,,0.00,VWS V14.01,2013-03-01 17:05:00,
2013-03-01 12:09:00,61.0,43.9,30.01,West,270,0.0,4.8,53,0.00,,,0.00,VWS V14.01,2013-03-01 17:09:00,
2013-03-01 12:10:00,61.1,43.8,30.01,West,270,0.0,3.3,53,0.00,,,0.00,VWS V14.01,2013-03-01 17:10:00,
2013-03-01 12:14:00,61.3,43.9,30.00,West,270,0.0,0.0,53,0.00,,,0.00,VWS V14.01,2013-03-01 17:14:00,
2013-03-01 12:15:00,61.7,43.8,30.00,West,270,0.0,0.0,52,0.00,,,0.00,VWS V14.01,2013-03-01 17:15:00,
2013-03-01 12:19:00,61.6,44.1,30.00,West,267,0.0,6.2,53,0.00,,,0.00,VWS V14.01,2013-03-01 17:19:00,
2013-03-01 12:20:00,61.5,44.2,30.00,West,267,0.0,3.2,53,0.00,,,0.00,VWS V14.01,2013-03-01 17:20:00,
2013-03-01 12:24:00,62.0,43.9,30.00,SW,228,0.0,0.0,52,0.00,,,0.00,VWS V14.01,2013-03-01 17:24:00,
2013-03-01 12:25:00,61.7,43.6,30.00,SW,228,0.0,0.0,51,0.00,,,0.00,VWS V14.01,2013-03-01 17:25:00,
2013-03-01 12:29:00,61.5,42.5,30.00,WSW,253,7.4,9.9,50,0.00,,,0.00,VWS V14.01,2013-03-01 17:29:00,
2013-03-01 12:30:00,61.8,43.2,29.99,North,6,0.0,9.9,50,0.00,,,0.00,VWS V14.01,2013-03-01 17:30:00,
2013-03-01 12:34:00,61.5,43.1,29.99,NW,307,0.0,3.5,51,0.00,,,0.00,VWS V14.01,2013-03-01 17:34:00,
2013-03-01 12:35:00,61.4,42.7,29.99,NW,307,0.0,0.0,50,0.00,,,0.00,VWS V14.01,2013-03-01 17:35:00,
2013-03-01 12:39:00,61.6,43.7,29.99,NW,314,2.2,4.7,52,0.00,,,0.00,VWS V14.01,2013-03-01 17:39:00,
2013-03-01 12:40:00,61.4,43.4,29.99,NW,314,0.0,4.7,52,0.00,,,0.00,VWS V14.01,2013-03-01 17:40:00,
2013-03-01 12:44:00,61.6,43.8,29.99,NW,314,0.0,0.0,52,0.00,,,0.00,VWS V14.01,2013-03-01 17:44:00,
2013-03-01 12:45:00,61.8,43.9,29.98,NW,314,0.0,0.0,52,0.00,,,0.00,VWS V14.01,2013-03-01 17:45:00,
2013-03-01 12:49:00,61.8,43.5,29.98,WNW,284,3.1,3.4,51,0.00,,,0.00,VWS V14.01,2013-03-01 17:49:00,
2013-03-01 12:50:00,62.0,43.6,29.98,West,277,0.0,4.3,51,0.00,,,0.00,VWS V14.01,2013-03-01 17:50:00,
2013-03-01 12:54:00,62.2,44.2,29.98,WSW,256,0.0,0.0,52,0.00,,,0.00,VWS V14.01,2013-03-01 17:54:00,
2013-03-01 12:55:00,62.0,44.1,29.98,WSW,256,0.0,2.5,52,0.00,,,0.00,VWS V14.01,2013-03-01 17:55:00,
2013-03-01 12:59:00,62.1,43.5,29.98,West,271,0.0,0.0,50,0.00,,,0.00,VWS V14.01,2013-03-01 17:59:00,
2013-03-01 13:00:00,62.7,44.3,29.98,NNW,345,0.0,5.6,51,0.00,,,0.00,VWS V14.01,2013-03-01 18:00:00,
2013-03-01 13:04:00,62.8,42.7,29.97,NW,316,0.0,0.0,48,0.00,,,0.00,VWS V14.01,2013-03-01 18:04:00,
2013-03-01 13:05:00,62.7,42.3,29.98,NW,316,0.0,0.0,47,0.00,,,0.00,VWS V14.01,2013-03-01 18:05:00,
2013-03-01 13:09:00,62.3,43.0,29.97,WNW,298,0.0,5.8,49,0.00,,,0.00,VWS V14.01,2013-03-01 18:09:00,
2013-03-01 13:10:00,62.6,43.5,29.97,West,276,0.0,5.8,50,0.00,,,0.00,VWS V14.01,2013-03-01 18:10:00,
2013-03-01 13:14:00,62.4,42.2,29.97,NW,314,4.5,8.6,48,0.00,,,0.00,VWS V14.01,2013-03-01 18:14:00,
2013-03-01 13:15:00,62.2,42.1,29.97,NW,315,2.7,5.8,48,0.00,,,0.00,VWS V14.01,2013-03-01 18:15:00,
2013-03-01 13:19:00,62.1,43.4,29.97,WNW,290,3.4,4.8,50,0.00,,,0.00,VWS V14.01,2013-03-01 18:19:00,
2013-03-01 13:20:00,62.5,43.4,29.97,NNW,347,3.0,6.3,50,0.00,,,0.00,VWS V14.01,2013-03-01 18:20:00,
2013-03-01 13:24:00,62.3,42.9,29.97,WSW,240,4.7,5.1,49,0.00,,,0.00,VWS V14.01,2013-03-01 18:24:00,
2013-03-01 13:25:00,62.0,42.5,29.97,WSW,240,0.0,4.8,49,0.00,,,0.00,VWS V14.01,2013-03-01 18:25:00,
2013-03-01 13:29:00,62.2,43.3,29.96,West,280,0.0,2.6,50,0.00,,,0.00,VWS V14.01,2013-03-01 18:29:00,
2013-03-01 13:30:00,62.1,43.4,29.96,West,280,0.0,0.0,50,0.00,,,0.00,VWS V14.01,2013-03-01 18:30:00,
2013-03-01 13:34:00,62.5,43.2,29.96,West,280,0.0,4.2,49,0.00,,,0.00,VWS V14.01,2013-03-01 18:34:00,
2013-03-01 13:35:00,62.2,42.7,29.96,WSW,250,0.0,4.9,49,0.00,,,0.00,VWS V14.01,2013-03-01 18:35:00,
2013-03-01 13:39:00,62.1,42.9,29.96,NW,314,3.3,5.0,49,0.00,,,0.00,VWS V14.01,2013-03-01 18:39:00,
2013-03-01 13:40:00,62.4,42.5,29.96,North,8,0.0,5.0,48,0.00,,,0.00,VWS V14.01,2013-03-01 18:40:00,
2013-03-01 13:44:00,62.6,41.8,29.95,West,260,0.0,7.0,46,0.00,,,0.00,VWS V14.01,2013-03-01 18:44:00,
2013-03-01 13:45:00,62.4,41.1,29.95,NW,314,0.0,6.5,46,0.00,,,0.00,VWS V14.01,2013-03-01 18:45:00,
2013-03-01 13:49:00,62.3,42.2,29.95,WNW,300,7.0,9.7,48,0.00,,,0.00,VWS V14.01,2013-03-01 18:49:00,
2013-03-01 13:50:00,62.2,42.2,29.95,West,271,0.0,9.6,48,0.00,,,0.00,VWS V14.01,2013-03-01 18:50:00,
2013-03-01 13:54:00,62.2,42.1,29.95,WSW,246,0.0,0.0,48,0.00,,,0.00,VWS V14.01,2013-03-01 18:54:00,
2013-03-01 13:55:00,62.4,42.4,29.94,WSW,246,0.0,0.0,48,0.00,,,0.00,VWS V14.01,2013-03-01 18:55:00,
2013-03-01 13:59:00,62.0,42.6,29.94,SW,219,0.0,6.1,49,0.00,,,0.00,VWS V14.01,2013-03-01 18:59:00,
2013-03-01 14:00:00,62.3,42.9,29.94,SW,219,0.0,2.5,49,0.00,,,0.00,VWS V14.01,2013-03-01 19:00:00,
2013-03-01 14:04:00,62.8,43.6,29.94,SW,219,0.0,0.0,50,0.00,,,0.00,VWS V14.01,2013-03-01 19:04:00,
2013-03-01 14:05:00,62.2,42.8,29.94,North,3,2.7,7.3,49,0.00,,,0.00,VWS V14.01,2013-03-01 19:05:00,
2013-03-01 14:09:00,62.4,43.3,29.94,NNE,22,0.0,0.0,50,0.00,,,0.00,VWS V14.01,2013-03-01 19:09:00,
2013-03-01 14:10:00,62.3,43.3,29.94,North,350,4.2,4.7,50,0.00,,,0.00,VWS V14.01,2013-03-01 19:10:00,
2013-03-01 14:14:00,62.6,43.9,29.94,WNW,290,8.5,8.5,50,0.00,,,0.00,VWS V14.01,2013-03-01 19:14:00,
2013-03-01 14:15:00,62.7,43.6,29.94,NNW,333,0.0,8.5,50,0.00,,,0.00,VWS V14.01,2013-03-01 19:15:00,
2013-03-01 14:19:00,63.2,43.7,29.93,North,357,0.0,3.4,49,0.00,,,0.00,VWS V14.01,2013-03-01 19:19:00,
2013-03-01 14:20:00,63.1,43.7,29.94,North,357,0.0,0.0,49,0.00,,,0.00,VWS V14.01,2013-03-01 19:20:00,
2013-03-01 14:24:00,63.3,43.2,29.93,NNE,22,2.9,6.5,48,0.00,,,0.00,VWS V14.01,2013-03-01 19:24:00,
2013-03-01 14:25:00,63.7,44.2,29.93,WNW,291,2.9,5.5,49,0.00,,,0.00,VWS V14.01,2013-03-01 19:25:00,
2013-03-01 14:29:00,63.4,43.8,29.93,WNW,284,0.0,0.0,49,0.00,,,0.00,VWS V14.01,2013-03-01 19:29:00,
2013-03-01 14:30:00,63.3,43.8,29.93,West,277,4.7,6.5,49,0.00,,,0.00,VWS V14.01,2013-03-01 19:30:00,
2013-03-01 14:34:00,63.4,43.7,29.93,WNW,292,0.0,0.0,49,0.00,,,0.00,VWS V14.01,2013-03-01 19:34:00,
2013-03-01 14:35:00,63.4,43.8,29.93,NW,309,0.0,2.6,49,0.00,,,0.00,VWS V14.01,2013-03-01 19:35:00,
2013-03-01 14:39:00,63.1,43.8,29.93,WNW,294,0.0,0.0,49,0.00,,,0.00,VWS V14.01,2013-03-01 19:39:00,
2013-03-01 14:40:00,63.1,44.0,29.93,WNW,294,0.0,0.0,50,0.00,,,0.00,VWS V14.01,2013-03-01 19:40:00,
2013-03-01 14:44:00,63.3,44.7,29.93,WSW,249,0.0,5.4,51,0.00,,,0.00,VWS V14.01,2013-03-01 19:44:00,
2013-03-01 14:45:00,63.2,43.5,29.93,WNW,301,8.1,9.1,49,0.00,,,0.00,VWS V14.01,2013-03-01 19:45:00,
2013-03-01 14:49:00,63.7,43.7,29.93,NW,321,0.0,5.2,48,0.00,,,0.00,VWS V14.01,2013-03-01 19:49:00,
2013-03-01 14:50:00,63.7,44.3,29.93,NW,321,0.0,0.0,49,0.00,,,0.00,VWS V14.01,2013-03-01 19:50:00,
2013-03-01 14:54:00,64.1,43.8,29.93,NW,321,0.0,0.0,48,0.00,,,0.00,VWS V14.01,2013-03-01 19:54:00,
2013-03-01 14:55:00,64.2,44.2,29.93,WNW,291,5.4,5.5,48,0.00,,,0.00,VWS V14.01,2013-03-01 19:55:00,
2013-03-01 14:59:00,64.5,44.2,29.93,West,278,0.0,2.7,48,0.00,,,0.00,VWS V14.01,2013-03-01 19:59:00,
2013-03-01 15:00:00,64.6,43.9,29.93,West,278,0.0,0.0,47,0.00,,,0.00,VWS V14.01,2013-03-01 20:00:00,
2013-03-01 15:04:00,64.8,43.9,29.93,NW,315,0.0,8.3,47,0.00,,,0.00,VWS V14.01,2013-03-01 20:04:00,
2013-03-01 15:05:00,65.0,44.2,29.93,NW,315,0.0,0.0,47,0.00,,,0.00,VWS V14.01,2013-03-01 20:05:00,
2013-03-01 15:09:00,64.9,43.8,29.93,NW,316,0.0,5.5,46,0.00,,,0.00,VWS V14.01,2013-03-01 20:09:00,
2013-03-01 15:10:00,64.9,44.1,29.93,SSW,193,0.0,10.4,47,0.00,,,0.00,VWS V14.01,2013-03-01 20:10:00,
2013-03-01 15:14:00,65.2,44.2,29.93,SW,228,0.0,4.3,46,0.00,,,0.00,VWS V14.01,2013-03-01 20:14:00,
2013-03-01 15:15:00,65.1,44.1,29.93,NW,321,0.0,6.3,46,0.00,,,0.00,VWS V14.01,2013-03-01 20:15:00,
2013-03-01 15:19:00,65.4,44.6,29.93,WNW,302,0.0,3.0,47,0.00,,,0.00,VWS V14.01,2013-03-01 20:19:00,
2013-03-01 15:20:00,65.6,44.7,29.93,WNW,302,0.0,0.0,47,0.00,,,0.00,VWS V14.01,2013-03-01 20:20:00,
2013-03-01 15:24:00,65.7,42.8,29.93,WNW,302,0.0,0.0,43,0.00,,,0.00,VWS V14.01,2013-03-01 20:24:00,
2013-03-01 15:25:00,65.6,43.3,29.93,WNW,302,0.0,0.0,44,0.00,,,0.00,VWS V14.01,2013-03-01 20:25:00,
2013-03-01 15:29:00,65.8,44.6,29.93,SW,226,0.0,0.0,46,0.00,,,0.00,VWS V14.01,2013-03-01 20:29:00,
2013-03-01 15:30:00,66.0,44.3,29.93,SW,226,0.0,0.0,45,0.00,,,0.00,VWS V14.01,2013-03-01 20:30:00,
2013-03-01 15:34:00,66.1,43.3,29.93,West,267,4.3,4.5,44,0.00,,,0.00,VWS V14.01,2013-03-01 20:34:00,
2013-03-01 15:35:00,66.0,42.8,29.93,West,267,0.0,4.3,43,0.00,,,0.00,VWS V14.01,2013-03-01 20:35:00,
2013-03-01 15:39:00,66.0,43.4,29.93,West,259,0.0,0.0,44,0.00,,,0.00,VWS V14.01,2013-03-01 20:39:00,
2013-03-01 15:40:00,65.8,43.4,29.93,WNW,297,6.0,6.0,44,0.00,,,0.00,VWS V14.01,2013-03-01 20:40:00,
2013-03-01 15:44:00,65.8,44.2,29.93,NW,307,0.0,0.0,46,0.00,,,0.00,VWS V14.01,2013-03-01 20:44:00,
2013-03-01 15:45:00,65.6,44.3,29.93,WNW,291,7.1,8.2,46,0.00,,,0.00,VWS V14.01,2013-03-01 20:45:00,
2013-03-01 15:48:00,65.8,43.8,29.93,WNW,287,0.0,0.0,45,0.00,,,0.00,VWS V14.01,2013-03-01 20:48:00,
2013-03-01 15:50:00,66.0,44.4,29.93,WSW,243,0.0,4.7,46,0.00,,,0.00,VWS V14.01,2013-03-01 20:50:00,
2013-03-01 15:53:00,66.0,43.4,29.93,SSW,204,2.0,7.2,44,0.00,,,0.00,VWS V14.01,2013-03-01 20:53:00,
2013-03-01 15:55:00,66.2,43.3,29.93,SSW,204,0.0,2.0,43,0.00,,,0.00,VWS V14.01,2013-03-01 20:55:00,
2013-03-01 15:58:00,66.4,44.2,29.93,WNW,295,5.0,8.6,45,0.00,,,0.00,VWS V14.01,2013-03-01 20:58:00,
2013-03-01 16:00:00,66.4,44.2,29.93,WNW,290,0.0,5.0,45,0.00,,,0.00,VWS V14.01,2013-03-01 21:00:00,
2013-03-01 16:03:00,67.0,43.8,29.93,WNW,290,0.0,0.0,43,0.00,,,0.00,VWS V14.01,2013-03-01 21:03:00,
2013-03-01 16:05:00,67.2,44.9,29.93,WNW,290,0.0,0.0,45,0.00,,,0.00,VWS V14.01,2013-03-01 21:05:00,
2013-03-01 16:08:00,67.4,43.8,29.93,SSE,152,0.0,4.7,42,0.00,,,0.00,VWS V14.01,2013-03-01 21:08:00,
2013-03-01 16:10:00,67.3,43.1,29.93,SSE,152,0.0,0.0,42,0.00,,,0.00,VWS V14.01,2013-03-01 21:10:00,
2013-03-01 16:13:00,67.3,43.3,29.93,NW,318,5.2,5.3,42,0.00,,,0.00,VWS V14.01,2013-03-01 21:13:00,
2013-03-01 16:15:00,67.2,43.5,29.93,West,271,0.0,6.2,42,0.00,,,0.00,VWS V14.01,2013-03-01 21:15:00,
2013-03-01 16:18:00,67.2,44.2,29.93,West,273,0.0,7.8,43,0.00,,,0.00,VWS V14.01,2013-03-01 21:18:00,
2013-03-01 16:20:00,67.3,44.4,29.93,NW,309,0.0,6.0,44,0.00,,,0.00,VWS V14.01,2013-03-01 21:20:00,
2013-03-01 16:23:00,67.0,43.2,29.93,SW,235,0.0,6.8,42,0.00,,,0.00,VWS V14.01,2013-03-01 21:23:00,
2013-03-01 16:25:00,67.0,43.9,29.93,SW,235,0.0,3.0,43,0.00,,,0.00,VWS V14.01,2013-03-01 21:25:00,
2013-03-01 16:28:00,66.5,42.0,29.93,NW,308,0.0,9.8,41,0.00,,,0.00,VWS V14.01,2013-03-01 21:28:00,
2013-03-01 16:30:00,66.4,42.4,29.93,NW,308,0.0,0.0,42,0.00,,,0.00,VWS V14.01,2013-03-01 21:30:00,
2013-03-01 16:33:00,65.9,41.4,29.92,North,359,0.0,6.1,41,0.00,,,0.00,VWS V14.01,2013-03-01 21:33:00,
2013-03-01 16:35:00,66.0,41.8,29.93,North,359,0.0,6.6,41,0.00,,,0.00,VWS V14.01,2013-03-01 21:35:00,
2013-03-01 16:38:00,65.7,42.3,29.92,NNW,330,0.0,8.3,42,0.00,,,0.00,VWS V14.01,2013-03-01 21:38:00,
2013-03-01 16:40:00,65.8,42.0,29.92,NNW,330,0.0,0.0,42,0.00,,,0.00,VWS V14.01,2013-03-01 21:40:00,
2013-03-01 16:43:00,66.1,43.4,29.93,North,359,0.0,7.9,44,0.00,,,0.00,VWS V14.01,2013-03-01 21:43:00,
2013-03-01 16:45:00,65.8,42.7,29.93,WNW,302,4.9,9.2,43,0.00,,,0.00,VWS V14.01,2013-03-01 21:45:00,
2013-03-01 16:48:00,65.8,42.3,29.92,WNW,302,0.0,0.0,42,0.00,,,0.00,VWS V14.01,2013-03-01 21:48:00,
2013-03-01 16:50:00,65.8,42.8,29.92,WNW,302,0.0,0.0,43,0.00,,,0.00,VWS V14.01,2013-03-01 21:50:00,
2013-03-01 16:53:00,65.6,43.3,29.93,NW,314,7.8,7.8,44,0.00,,,0.00,VWS V14.01,2013-03-01 21:53:00,
2013-03-01 16:55:00,65.4,42.8,29.92,WNW,301,10.1,10.1,44,0.00,,,0.00,VWS V14.01,2013-03-01 21:55:00,
2013-03-01 16:58:00,65.4,42.6,29.93,NNW,343,4.8,8.2,43,0.00,,,0.00,VWS V14.01,2013-03-01 21:58:00,
2013-03-01 17:00:00,65.2,42.2,29.92,NW,308,0.0,6.0,43,0.00,,,0.00,VWS V14.01,2013-03-01 22:00:00,
2013-03-01 17:03:00,65.0,42.5,29.93,North,6,0.0,9.8,44,0.00,,,0.00,VWS V14.01,2013-03-01 22:03:00,
2013-03-01 17:05:00,64.8,42.1,29.93,WNW,295,2.8,7.1,44,0.00,,,0.00,VWS V14.01,2013-03-01 22:05:00,
2013-03-01 17:08:00,64.7,41.7,29.93,North,359,0.0,7.3,43,0.00,,,0.00,VWS V14.01,2013-03-01 22:08:00,
2013-03-01 17:10:00,64.5,41.8,29.93,NW,311,0.0,6.2,43,0.00,,,0.00,VWS V14.01,2013-03-01 22:10:00,
2013-03-01 17:13:00,64.0,41.4,29.93,NW,318,8.0,11.4,44,0.00,,,0.00,VWS V14.01,2013-03-01 22:13:00,
2013-03-01 17:15:00,63.8,40.6,29.93,NE,34,3.4,10.4,42,0.00,,,0.00,VWS V14.01,2013-03-01 22:15:00,
2013-03-01 17:18:00,63.3,40.6,29.93,West,271,3.4,11.1,43,0.00,,,0.00,VWS V14.01,2013-03-01 22:18:00,
2013-03-01 17:20:00,63.2,40.6,29.93,NW,305,3.0,7.8,43,0.00,,,0.00,VWS V14.01,2013-03-01 22:20:00,
2013-03-01 17:23:00,63.2,41.0,29.93,WNW,297,5.2,10.3,44,0.00,,,0.00,VWS V14.01,2013-03-01 22:23:00,
2013-03-01 17:25:00,63.0,40.7,29.93,NW,304,4.4,8.8,44,0.00,,,0.00,VWS V14.01,2013-03-01 22:25:00,
2013-03-01 17:28:00,63.1,41.4,29.93,NNE,14,0.0,3.4,45,0.00,,,0.00,VWS V14.01,2013-03-01 22:28:00,
2013-03-01 17:30:00,62.7,41.4,29.93,West,281,0.0,5.8,46,0.00,,,0.00,VWS V14.01,2013-03-01 22:30:00,
2013-03-01 17:33:00,62.6,40.9,29.93,West,270,0.0,9.2,45,0.00,,,0.00,VWS V14.01,2013-03-01 22:33:00,
2013-03-01 17:35:00,62.7,40.9,29.93,NW,314,5.2,7.7,45,0.00,,,0.00,VWS V14.01,2013-03-01 22:35:00,
2013-03-01 17:38:00,62.7,41.0,29.93,WNW,284,2.9,7.8,45,0.00,,,0.00,VWS V14.01,2013-03-01 22:38:00,
2013-03-01 17:40:00,62.4,40.9,29.94,WNW,295,3.4,8.1,45,0.00,,,0.00,VWS V14.01,2013-03-01 22:40:00,
2013-03-01 17:43:00,61.9,40.7,29.94,NW,314,0.0,0.0,46,0.00,,,0.00,VWS V14.01,2013-03-01 22:43:00,
2013-03-01 17:45:00,62.1,41.2,29.94,West,271,0.0,7.3,46,0.00,,,0.00,VWS V14.01,2013-03-01 22:45:00,
2013-03-01 17:48:00,62.1,41.4,29.94,West,276,0.0,3.2,46,0.00,,,0.00,VWS V14.01,2013-03-01 22:48:00,
2013-03-01 17:50:00,62.2,41.5,29.94,West,276,0.0,0.0,47,0.00,,,0.00,VWS V14.01,2013-03-01 22:50:00,
2013-03-01 17:53:00,61.7,41.2,29.93,WNW,283,0.0,5.8,47,0.00,,,0.00,VWS V14.01,2013-03-01 22:53:00,
2013-03-01 17:55:00,61.6,41.2,29.93,WNW,283,0.0,0.0,47,0.00,,,0.00,VWS V14.01,2013-03-01 22:55:00,
2013-03-01 17:58:00,61.7,41.3,29.94,WNW,294,0.0,4.9,47,0.00,,,0.00,VWS V14.01,2013-03-01 22:58:00,
2013-03-01 18:00:00,61.7,41.1,29.94,WNW,284,0.0,7.0,47,0.00,,,0.00,VWS V14.01,2013-03-01 23:00:00,
2013-03-01 18:03:00,61.1,41.1,29.94,NW,323,0.0,0.0,48,0.00,,,0.00,VWS V14.01,2013-03-01 23:03:00,
2013-03-01 18:05:00,61.0,41.0,29.94,SW,231,3.0,7.0,48,0.00,,,0.00,VWS V14.01,2013-03-01 23:05:00,
2013-03-01 18:08:00,61.2,41.0,29.95,NW,307,3.4,8.9,47,0.00,,,0.00,VWS V14.01,2013-03-01 23:08:00,
2013-03-01 18:10:00,60.8,40.5,29.94,West,277,0.0,11.3,47,0.00,,,0.00,VWS V14.01,2013-03-01 23:10:00,
2013-03-01 18:13:00,60.5,40.8,29.95,SW,236,0.0,9.8,48,0.00,,,0.00,VWS V14.01,2013-03-01 23:13:00,
2013-03-01 18:15:00,60.6,41.1,29.94,NW,305,3.3,5.4,49,0.00,,,0.00,VWS V14.01,2013-03-01 23:15:00,
2013-03-01 18:18:00,60.5,41.6,29.95,WNW,298,3.3,3.3,50,0.00,,,0.00,VWS V14.01,2013-03-01 23:18:00,
2013-03-01 18:20:00,60.3,41.7,29.95,WNW,291,0.0,5.5,50,0.00,,,0.00,VWS V14.01,2013-03-01 23:20:00,
2013-03-01 18:23:00,60.3,42.3,29.95,NW,312,0.0,5.5,51,0.00,,,0.00,VWS V14.01,2013-03-01 23:23:00,
2013-03-01 18:25:00,60.3,42.3,29.95,NW,312,0.0,0.0,51,0.00,,,0.00,VWS V14.01,2013-03-01 23:25:00,
2013-03-01 18:28:00,60.3,42.4,29.95,NW,319,6.3,9.0,52,0.00,,,0.00,VWS V14.01,2013-03-01 23:28:00,
2013-03-01 18:30:00,59.9,42.2,29.95,SW,221,0.0,5.2,52,0.00,,,0.00,VWS V14.01,2013-03-01 23:30:00,
2013-03-01 18:33:00,59.9,42.6,29.96,WNW,285,8.9,8.9,53,0.00,,,0.00,VWS V14.01,2013-03-01 23:33:00,
2013-03-01 18:35:00,59.9,42.7,29.96,WNW,290,5.8,5.8,53,0.00,,,0.00,VWS V14.01,2013-03-01 23:35:00,
2013-03-01 18:38:00,59.7,42.8,29.96,WSW,255,4.5,5.6,54,0.00,,,0.00,VWS V14.01,2013-03-01 23:38:00,
2013-03-01 18:40:00,59.7,43.0,29.96,NNW,328,0.0,10.5,54,0.00,,,0.00,VWS V14.01,2013-03-01 23:40:00,
2013-03-01 18:43:00,59.5,43.1,29.97,West,274,0.0,6.4,54,0.00,,,0.00,VWS V14.01,2013-03-01 23:43:00,
2013-03-01 18:45:00,59.4,43.0,29.97,NNW,347,0.0,7.1,54,0.00,,,0.00,VWS V14.01,2013-03-01 23:45:00,
2013-03-01 18:48:00,59.5,43.5,29.97,WNW,284,4.8,8.1,55,0.00,,,0.00,VWS V14.01,2013-03-01 23:48:00,
2013-03-01 18:50:00,59.3,43.3,29.97,West,266,0.0,4.2,55,0.00,,,0.00,VWS V14.01,2013-03-01 23:50:00,
2013-03-01 18:53:00,59.4,43.5,29.97,NW,307,0.0,2.7,56,0.00,,,0.00,VWS V14.01,2013-03-01 23:53:00,
2013-03-01 18:55:00,59.2,43.4,29.97,NW,305,3.3,6.5,56,0.00,,,0.00,VWS V14.01,2013-03-01 23:55:00,
2013-03-01 18:58:00,59.2,43.4,29.97,NW,307,0.0,4.8,56,0.00,,,0.00,VWS V14.01,2013-03-01 23:58:00,
2013-03-01 19:00:00,59.2,43.7,29.97,NW,321,0.0,9.1,56,0.00,,,0.00,VWS V14.01,2013-03-02 00:00:00,
2013-03-01 19:03:00,59.0,43.4,29.97,West,281,2.9,8.2,56,0.00,,,0.00,VWS V14.01,2013-03-02 00:03:00,
2013-03-01 19:05:00,58.9,43.3,29.97,West,260,0.0,7.2,56,0.00,,,0.00,VWS V14.01,2013-03-02 00:05:00,
2013-03-01 19:08:00,58.8,43.4,29.97,NW,311,7.0,10.6,56,0.00,,,0.00,VWS V14.01,2013-03-02 00:08:00,
2013-03-01 19:10:00,58.8,43.3,29.98,West,270,0.0,15.5,56,0.00,,,0.00,VWS V14.01,2013-03-02 00:10:00,
2013-03-01 19:13:00,58.6,43.3,29.98,WNW,294,0.0,4.7,57,0.00,,,0.00,VWS V14.01,2013-03-02 00:13:00,
2013-03-01 19:15:00,58.4,43.0,29.98,NW,311,0.0,7.6,56,0.00,,,0.00,VWS V14.01,2013-03-02 00:15:00,
2013-03-01 19:18:00,58.4,43.3,29.98,WNW,295,7.1,10.4,57,0.00,,,0.00,VWS V14.01,2013-03-02 00:18:00,
2013-03-01 19:20:00,58.3,43.1,29.98,WSW,242,0.0,11.1,57,0.00,,,0.00,VWS V14.01,2013-03-02 00:20:00,
2013-03-01 19:23:00,58.3,43.4,29.97,NNW,328,0.0,10.4,58,0.00,,,0.00,VWS V14.01,2013-03-02 00:23:00,
2013-03-01 19:25:00,58.3,43.2,29.98,West,270,0.0,11.3,57,0.00,,,0.00,VWS V14.01,2013-03-02 00:25:00,
2013-03-01 19:28:00,58.2,43.1,29.97,West,274,5.6,5.6,57,0.00,,,0.00,VWS V14.01,2013-03-02 00:28:00,
2013-03-01 19:30:00,58.2,43.3,29.98,WSW,256,0.0,3.4,58,0.00,,,0.00,VWS V14.01,2013-03-02 00:30:00,
2013-03-01 19:33:00,58.1,43.1,29.99,WSW,252,0.0,8.1,57,0.00,,,0.00,VWS V14.01,2013-03-02 00:33:00,
2013-03-01 19:35:00,58.0,42.8,29.98,SW,225,0.0,10.9,57,0.00,,,0.00,VWS V14.01,2013-03-02 00:35:00,
2013-03-01 19:38:00,58.0,42.9,29.97,North,359,3.5,9.7,57,0.00,,,0.00,VWS V14.01,2013-03-02 00:38:00,
2013-03-01 19:40:00,57.9,43.2,29.98,West,271,2.5,7.1,58,0.00,,,0.00,VWS V14.01,2013-03-02 00:40:00,
2013-03-01 19:43:00,57.7,42.9,29.98,SW,214,0.0,10.9,58,0.00,,,0.00,VWS V14.01,2013-03-02 00:43:00,
2013-03-01 19:45:00,57.6,42.9,29.98,WSW,252,0.0,9.9,58,0.00,,,0.00,VWS V14.01,2013-03-02 00:45:00,
2013-03-01 19:48:00,57.6,43.1,29.98,NW,311,0.0,8.0,58,0.00,,,0.00,VWS V14.01,2013-03-02 00:48:00,
2013-03-01 19:50:00,57.5,42.9,29.99,WNW,294,4.3,9.1,58,0.00,,,0.00,VWS V14.01,2013-03-02 00:50:00,
2013-03-01 19:53:00,57.4,43.0,29.99,NNE,18,0.0,13.2,59,0.00,,,0.00,VWS V14.01,2013-03-02 00:53:00,
2013-03-01 19:55:00,57.4,43.1,29.99,NNW,339,4.8,9.8,59,0.00,,,0.00,VWS V14.01,2013-03-02 00:55:00,
2013-03-01 19:58:00,57.3,43.4,29.99,WNW,297,0.0,4.7,60,0.00,,,0.00,VWS V14.01,2013-03-02 00:58:00,
2013-03-01 20:00:00,57.3,43.6,29.99,WNW,297,0.0,2.4,60,0.00,,,0.00,VWS V14.01,2013-03-02 01:00:00,
2013-03-01 20:03:00,57.4,43.7,29.99,WNW,290,3.2,8.5,60,0.00,,,0.00,VWS V14.01,2013-03-02 01:03:00,
2013-03-01 20:05:00,57.4,44.2,29.99,West,277,3.0,10.7,61,0.00,,,0.00,VWS V14.01,2013-03-02 01:05:00,
2013-03-01 20:08:00,57.3,43.9,29.99,WSW,249,2.9,3.5,61,0.00,,,0.00,VWS V14.01,2013-03-02 01:08:00,
2013-03-01 20:10:00,57.3,44.1,29.99,NNW,342,0.0,6.9,61,0.00,,,0.00,VWS V14.01,2013-03-02 01:10:00,
2013-03-01 20:13:00,57.3,44.2,29.99,NNW,340,5.5,10.3,62,0.00,,,0.00,VWS V14.01,2013-03-02 01:13:00,
2013-03-01 20:15:00,57.2,44.0,29.99,WNW,297,0.0,5.8,61,0.00,,,0.00,VWS V14.01,2013-03-02 01:15:00,
2013-03-01 20:18:00,57.1,44.1,29.99,WSW,249,0.0,5.3,62,0.00,,,0.00,VWS V14.01,2013-03-02 01:18:00,
2013-03-01 20:20:00,57.0,44.0,29.99,West,273,0.0,3.0,62,0.00,,,0.00,VWS V14.01,2013-03-02 01:20:00,
2013-03-01 20:23:00,57.0,44.1,29.98,WNW,295,4.2,4.2,62,0.00,,,0.00,VWS V14.01,2013-03-02 01:23:00,
2013-03-01 20:25:00,56.9,44.0,29.98,WNW,301,0.0,0.0,62,0.00,,,0.00,VWS V14.01,2013-03-02 01:25:00,
2013-03-01 20:28:00,57.0,44.2,29.99,WNW,300,1.8,5.3,62,0.00,,,0.00,VWS V14.01,2013-03-02 01:28:00,
2013-03-01 20:30:00,56.9,44.1,29.99,WNW,283,9.4,9.4,62,0.00,,,0.00,VWS V14.01,2013-03-02 01:30:00,
2013-03-01 20:33:00,56.8,44.0,29.99,SSW,204,4.5,5.2,62,0.00,,,0.00,VWS V14.01,2013-03-02 01:33:00,
2013-03-01 20:35:00,56.8,43.9,29.99,SSW,204,0.0,4.3,62,0.00,,,0.00,VWS V14.01,2013-03-02 01:35:00,
2013-03-01 20:38:00,56.6,43.5,29.99,NNW,338,6.7,10.1,61,0.00,,,0.00,VWS V14.01,2013-03-02 01:38:00,
2013-03-01 20:40:00,56.6,43.6,29.99,West,262,3.2,6.8,62,0.00,,,0.00,VWS V14.01,2013-03-02 01:40:00,
2013-03-01 20:43:00,56.5,43.4,30.00,WNW,283,7.1,9.7,62,0.00,,,0.00,VWS V14.01,2013-03-02 01:43:00,
2013-03-01 20:45:00,56.4,43.7,30.00,WSW,255,4.9,7.5,62,0.00,,,0.00,VWS V14.01,2013-03-02 01:45:00,
2013-03-01 20:48:00,56.4,43.6,29.99,West,271,5.5,5.5,62,0.00,,,0.00,VWS V14.01,2013-03-02 01:48:00,
2013-03-01 20:50:00,56.3,43.4,30.00,NNW,333,0.0,7.8,62,0.00,,,0.00,VWS V14.01,2013-03-02 01:50:00,
2013-03-01 20:53:00,56.3,43.6,30.00,West,280,0.0,4.2,62,0.00,,,0.00,VWS V14.01,2013-03-02 01:53:00,
2013-03-01 20:55:00,56.2,43.8,30.00,NNE,20,1.4,10.3,63,0.00,,,0.00,VWS V14.01,2013-03-02 01:55:00,
2013-03-01 20:58:00,56.2,43.8,30.00,WNW,290,4.8,9.4,63,0.00,,,0.00,VWS V14.01,2013-03-02 01:58:00,
2013-03-01 21:00:00,56.3,44.1,30.00,NW,307,0.0,6.8,64,0.00,,,0.00,VWS V14.01,2013-03-02 02:00:00,
2013-03-01 21:03:00,56.3,44.2,30.00,NW,304,0.0,3.2,64,0.00,,,0.00,VWS V14.01,2013-03-02 02:03:00,
2013-03-01 21:05:00,56.2,44.0,30.00,NW,304,0.0,3.0,64,0.00,,,0.00,VWS V14.01,2013-03-02 02:05:00,
2013-03-01 21:08:00,56.3,44.4,30.00,NW,325,0.0,6.3,64,0.00,,,0.00,VWS V14.01,2013-03-02 02:08:00,
2013-03-01 21:10:00,56.2,44.2,30.00,West,266,0.0,8.0,64,0.00,,,0.00,VWS V14.01,2013-03-02 02:10:00,
2013-03-01 21:13:00,56.2,44.3,30.00,WSW,255,0.0,0.0,64,0.00,,,0.00,VWS V14.01,2013-03-02 02:13:00,
2013-03-01 21:15:00,56.1,44.6,30.00,NNW,336,0.0,6.1,65,0.00,,,0.00,VWS V14.01,2013-03-02 02:15:00,
2013-03-01 21:18:00,56.1,44.7,30.00,West,278,7.1,7.1,65,0.00,,,0.00,VWS V14.01,2013-03-02 02:18:00,
2013-03-01 21:20:00,56.1,44.6,30.00,WNW,288,0.0,6.1,65,0.00,,,0.00,VWS V14.01,2013-03-02 02:20:00,
2013-03-01 21:23:00,56.0,44.6,30.00,NW,322,7.1,7.7,65,0.00,,,0.00,VWS V14.01,2013-03-02 02:23:00,
2013-03-01 21:25:00,56.0,44.6,30.00,WSW,246,3.0,6.5,65,0.00,,,0.00,VWS V14.01,2013-03-02 02:25:00,
2013-03-01 21:28:00,55.9,44.7,29.99,NW,326,6.3,6.3,66,0.00,,,0.00,VWS V14.01,2013-03-02 02:28:00,
2013-03-01 21:30:00,55.8,44.5,30.00,WNW,301,4.9,5.7,66,0.00,,,0.00,VWS V14.01,2013-03-02 02:30:00,
2013-03-01 21:33:00,55.8,44.5,30.00,West,278,0.0,5.7,66,0.00,,,0.00,VWS V14.01,2013-03-02 02:33:00,
2013-03-01 21:35:00,55.8,44.6,30.00,SSW,197,0.0,0.0,66,0.00,,,0.00,VWS V14.01,2013-03-02 02:35:00,
2013-03-01 21:38:00,55.8,44.7,30.01,West,280,4.5,5.9,66,0.00,,,0.00,VWS V14.01,2013-03-02 02:38:00,
2013-03-01 21:40:00,55.7,44.8,30.00,WNW,287,0.0,0.0,67,0.00,,,0.00,VWS V14.01,2013-03-02 02:40:00,
2013-03-01 21:43:00,55.8,44.9,30.00,WSW,240,0.0,4.5,67,0.00,,,0.00,VWS V14.01,2013-03-02 02:43:00,
2013-03-01 21:45:00,55.7,44.9,30.01,WNW,290,4.3,4.7,67,0.00,,,0.00,VWS V14.01,2013-03-02 02:45:00,
2013-03-01 21:48:00,55.8,45.0,30.00,North,359,0.0,2.8,67,0.00,,,0.00,VWS V14.01,2013-03-02 02:48:00,
2013-03-01 21:50:00,55.7,44.8,30.01,West,260,0.0,5.7,67,0.00,,,0.00,VWS V14.01,2013-03-02 02:50:00,
2013-03-01 21:53:00,55.7,44.8,30.01,NW,322,6.1,6.8,67,0.00,,,0.00,VWS V14.01,2013-03-02 02:53:00,
2013-03-01 21:55:00,55.7,44.9,30.01,WSW,255,0.0,0.0,67,0.00,,,0.00,VWS V14.01,2013-03-02 02:55:00,
2013-03-01 21:58:00,55.6,45.0,30.02,NW,319,0.0,5.8,67,0.00,,,0.00,VWS V14.01,2013-03-02 02:58:00,
2013-03-01 22:00:00,55.5,45.0,30.02,North,3,0.0,6.8,68,0.00,,,0.00,VWS V14.01,2013-03-02 03:00:00,
2013-03-01 22:03:00,55.4,44.8,30.01,North,7,4.2,7.4,67,0.00,,,0.00,VWS V14.01,2013-03-02 03:03:00,
2013-03-01 22:05:00,55.3,44.9,30.02,NNW,343,2.9,9.9,68,0.00,,,0.00,VWS V14.01,2013-03-02 03:05:00,
2013-03-01 22:08:00,55.3,44.9,30.02,North,349,3.5,5.3,68,0.00,,,0.00,VWS V14.01,2013-03-02 03:08:00,
2013-03-01 22:10:00,55.2,44.9,30.02,North,4,0.0,6.3,68,0.00,,,0.00,VWS V14.01,2013-03-02 03:10:00,
2013-03-01 22:13:00,55.2,44.9,30.02,SW,221,3.0,8.5,68,0.00,,,0.00,VWS V14.01,2013-03-02 03:13:00,
2013-03-01 22:15:00,55.1,45.1,30.02,North,352,0.0,8.7,69,0.00,,,0.00,VWS V14.01,2013-03-02 03:15:00,
2013-03-01 22:18:00,55.0,45.0,30.02,NNW,330,0.0,2.5,69,0.00,,,0.00,VWS V14.01,2013-03-02 03:18:00,
2013-03-01 22:20:00,54.9,44.9,30.02,NW,304,0.0,5.8,69,0.00,,,0.00,VWS V14.01,2013-03-02 03:20:00,
2013-03-01 22:23:00,55.0,45.2,30.02,SW,224,0.0,5.0,70,0.00,,,0.00,VWS V14.01,2013-03-02 03:23:00,
2013-03-01 22:25:00,54.8,45.1,30.02,NNW,346,5.2,7.2,70,0.00,,,0.00,VWS V14.01,2013-03-02 03:25:00,
2013-03-01 22:27:00,54.8,45.0,30.01,WNW,295,6.4,12.9,70,0.00,,,0.00,VWS V14.01,2013-03-02 03:27:00,
2013-03-01 22:32:00,54.7,45.1,30.01,West,270,0.0,6.0,70,0.00,,,0.00,VWS V14.01,2013-03-02 03:32:00,
2013-03-01 22:37:00,54.5,45.3,30.02,NNE,13,0.0,6.4,71,0.00,,,0.00,VWS V14.01,2013-03-02 03:37:00,
2013-03-01 22:42:00,54.6,45.4,30.02,NNW,340,0.0,8.9,71,0.00,,,0.00,VWS V14.01,2013-03-02 03:42:00,
2013-03-01 22:47:00,54.5,45.2,30.02,North,359,0.0,5.0,71,0.00,,,0.00,VWS V14.01,2013-03-02 03:47:00,
2013-03-01 22:53:00,54.5,45.2,30.02,WNW,297,0.0,0.0,71,0.00,,,0.00,VWS V14.01,2013-03-02 03:53:00,
2013-03-01 22:57:00,54.5,45.1,30.01,NNW,329,0.0,5.3,70,0.00,,,0.00,VWS V14.01,2013-03-02 03:57:00,
2013-03-01 23:02:00,54.6,45.3,30.02,NNW,329,0.0,0.0,71,0.00,,,0.00,VWS V14.01,2013-03-02 04:02:00,
2013-03-01 23:07:00,54.4,44.8,30.01,NNW,332,0.0,5.4,70,0.00,,,0.00,VWS V14.01,2013-03-02 04:07:00,
2013-03-01 23:12:00,54.4,44.7,30.02,NW,304,3.2,3.2,70,0.00,,,0.00,VWS V14.01,2013-03-02 04:12:00,
2013-03-01 23:17:00,54.2,44.3,30.02,North,359,0.0,0.0,69,0.00,,,0.00,VWS V14.01,2013-03-02 04:17:00,
2013-03-01 23:22:00,54.1,44.0,30.02,WNW,301,0.0,3.4,69,0.00,,,0.00,VWS V14.01,2013-03-02 04:22:00,
2013-03-01 23:27:00,54.0,43.7,30.02,West,263,0.0,7.4,68,0.00,,,0.00,VWS V14.01,2013-03-02 04:27:00,
2013-03-01 23:32:00,54.0,43.8,30.02,NW,307,7.7,9.1,68,0.00,,,0.00,VWS V14.01,2013-03-02 04:32:00,
2013-03-01 23:37:00,54.0,43.5,30.03,NW,315,3.0,6.3,68,0.00,,,0.00,VWS V14.01,2013-03-02 04:37:00,
2013-03-01 23:42:00,53.9,43.4,30.03,NW,312,0.0,5.3,67,0.00,,,0.00,VWS V14.01,2013-03-02 04:42:00,
2013-03-01 23:47:00,53.8,43.2,30.02,NNW,338,7.3,7.3,67,0.00,,,0.00,VWS V14.01,2013-03-02 04:47:00,
2013-03-01 23:52:00,53.4,42.8,30.02,WNW,298,8.1,8.1,67,0.00,,,0.00,VWS V14.01,2013-03-02 04:52:00,
2013-03-01 23:57:00,53.4,43.0,30.02,SW,217,0.0,0.0,68,0.00,,,0.00,VWS V14.01,2013-03-02 04:57:00,